ホーガン彗星

474P/Hogan (2018)

English version
Home page
Updated on February 21, 2024

---------------------------------------------------------------------

・ プロフィール

・ 軌道要素

                    Epoch = 2018 Jan.  2.0 TT
     T = 2018 Jan.  5.50886 TT        Peri. =  12.41625
     e = 0.1882315                    Node  =  26.77566 2000.0
     q = 2.5426081 AU                 Incl. =   1.09967
       a =  3.1321835 AU   n = 0.17780062   P =   5.54 years

・ 光度変化

        m1 = 16.5 + 5 logΔ + 10.0 log r

---------------------------------------------------------------------

軌道要素は、CBET 5341に掲載されたものです。
光度グラフはComet for Windowsで作成したものです。

---------------------------------------------------------------------

Copyright(C) Seiichi Yoshida (comet@aerith.net). All rights reserved.